Wheaton NDB, MN

12:18 PM CDT on September 26, 2017 (GMT -0500)
Wheaton Municipal

Weather History for KETH - April, 2014

Change the Weather History Date:

Friday, April 11, 2014

  Actual Average Record
Temperature  
Mean Temperature 50 °F -  
Max Temperature 66 °F 55 °F 88 °F (1977)
Min Temperature 35 °F 31 °F 15 °F (1957)
Degree Days  
Heating Degree Days 14    
Moisture  
Dew Point 37 °F    
Average Humidity 59    
Maximum Humidity 100    
Minimum Humidity 26    
Precipitation  
Precipitation 0.02 in - - ()
Sea Level Pressure  
Sea Level Pressure 29.92 in    
Wind  
Wind Speed 5 mph (West)    
Max Wind Speed 14 mph    
Max Gust Speed 18 mph    
Visibility 10 miles    
Events Rain    
Averages and records for this station are not official NWS values.
T = Trace of Precipitation, MM = Missing Value Source: NWS Daily Summary

Daily Weather History Graph

Daily Weather History Graph

Search for Another Location

Airport or City:

Trip Planner

Search our weather history database for the weather conditions in past years. The results will help you decide how hot, cold, wet, or windy it might be!

Date:

Astronomy

Apr. 11, 2014 Rise Set
Actual Time 6:47 AM CDT 8:07 PM CDT
Civil Twilight 6:16 AM CDT 8:38 PM CDT
Nautical Twilight 5:39 AM CDT 9:15 PM CDT
Astronomical Twilight 5:00 AM CDT 9:55 PM CDT
Moon 4:39 PM CDT (4/11) 4:54 AM CDT (4/11)
Length of Visible Light 14h 21m
Length of Day
13h 20m
Waxing Gibbous, 87% of the Moon is Illuminated
Apr 11
Waxing Gibbous
Apr 15
Full
Apr 22
Last Quarter
Apr 29
New
May 6
First Quarter

Hourly Weather History & Observations

Time (CDT) Temp. Windchill Dew Point Humidity Pressure Visibility Wind Dir Wind Speed Gust Speed Precip Events Conditions
12:15 AM 48.2 °F - 32.0 °F 54% 29.95 in 10.0 mi Calm Calm - N/A   Mostly Cloudy
12:34 AM 46.4 °F - 33.8 °F 62% 29.97 in 10.0 mi Calm Calm - N/A   Overcast
12:54 AM 48.2 °F - 33.8 °F 58% 29.97 in 10.0 mi WNW 9.2 mph - N/A   Light Drizzle
1:14 AM 48.2 °F - 35.6 °F 62% 29.96 in 10.0 mi West 4.6 mph - N/A Rain Light Rain
1:34 AM 48.2 °F - 37.4 °F 66% 29.97 in 10.0 mi NW 13.8 mph - N/A Rain Light Rain
1:54 AM 46.4 °F 41.5 °F 39.2 °F 76% 29.97 in 10.0 mi NNW 10.4 mph - N/A Rain Light Rain
2:15 AM 44.6 °F 42.2 °F 41.0 °F 87% 29.97 in 10.0 mi WNW 4.6 mph - 0.01 in Rain Rain
2:34 AM 44.6 °F - 41.0 °F 87% 29.96 in 10.0 mi Calm Calm - 0.02 in Rain Light Rain
2:55 AM 42.8 °F 41.1 °F 39.2 °F 87% 29.94 in 10.0 mi ENE 3.5 mph - 0.02 in   Overcast
3:15 AM 42.8 °F 39.3 °F 39.2 °F 87% 29.94 in 10.0 mi ENE 5.8 mph - N/A   Mostly Cloudy
3:34 AM 42.8 °F 39.3 °F 39.2 °F 87% 29.93 in 10.0 mi ENE 5.8 mph - N/A   Mostly Cloudy
3:54 AM 42.8 °F 39.3 °F 39.2 °F 87% 29.92 in 10.0 mi ENE 5.8 mph - N/A   Overcast
4:14 AM 42.8 °F 38.0 °F 39.2 °F 87% 29.92 in 10.0 mi East 8.1 mph - N/A   Overcast
4:34 AM 42.8 °F 38.6 °F 39.2 °F 87% 29.93 in 10.0 mi ENE 6.9 mph - N/A   Overcast
4:55 AM 41.0 °F 37.1 °F 39.2 °F 93% 29.93 in 10.0 mi NE 5.8 mph - N/A   Scattered Clouds
5:14 AM 41.0 °F 37.1 °F 37.4 °F 87% 29.94 in 10.0 mi NNE 5.8 mph - N/A   Clear
5:35 AM 39.2 °F 35.0 °F 37.4 °F 93% 29.94 in 10.0 mi East 5.8 mph - N/A   Scattered Clouds
5:54 AM 37.4 °F 32.8 °F 35.6 °F 93% 29.94 in 10.0 mi ESE 5.8 mph - N/A   Scattered Clouds
6:14 AM 37.4 °F 34.9 °F 35.6 °F 93% 29.94 in 10.0 mi East 3.5 mph - N/A   Scattered Clouds
6:35 AM 37.4 °F - 35.6 °F 93% 29.94 in 10.0 mi Calm Calm - N/A   Clear
6:55 AM 35.6 °F 32.8 °F 33.8 °F 93% 29.95 in 10.0 mi SSW 3.5 mph - N/A   Clear
7:14 AM 35.6 °F 31.7 °F 33.8 °F 93% 29.96 in 10.0 mi SW 4.6 mph - N/A   Clear
7:35 AM 35.6 °F 32.8 °F 35.6 °F 100% 29.96 in 10.0 mi WSW 3.5 mph - N/A   Clear
7:54 AM 37.4 °F 33.8 °F 35.6 °F 93% 29.97 in 10.0 mi SW 4.6 mph - N/A   Clear
8:15 AM 39.2 °F 37.0 °F 37.4 °F 93% 29.96 in 10.0 mi SSW 3.5 mph - N/A   Clear
8:35 AM 42.8 °F 39.3 °F 41.0 °F 93% 29.97 in 10.0 mi SW 5.8 mph - N/A   Clear
8:54 AM 44.6 °F 41.4 °F 41.0 °F 87% 29.96 in 10.0 mi SW 5.8 mph - N/A   Clear
9:15 AM 46.4 °F 43.5 °F 42.8 °F 87% 29.96 in 10.0 mi South 5.8 mph - N/A   Clear
9:34 AM 46.4 °F 42.9 °F 42.8 °F 87% 29.96 in 10.0 mi SSW 6.9 mph - N/A   Clear
9:54 AM 48.2 °F - 42.8 °F 82% 29.96 in 10.0 mi South 8.1 mph - N/A   Clear
10:14 AM 51.8 °F - 44.6 °F 76% 29.96 in 10.0 mi SSW 9.2 mph - N/A   Clear
10:34 AM 51.8 °F - 42.8 °F 71% 29.96 in 10.0 mi South 10.4 mph - N/A   Clear
10:54 AM 53.6 °F - 42.8 °F 67% 29.96 in 10.0 mi South 10.4 mph - N/A   Clear
11:14 AM 55.4 °F - 42.8 °F 63% 29.97 in 10.0 mi SSW 11.5 mph 18.4 mph N/A   Clear
11:36 AM 57.2 °F - 42.8 °F 59% 29.97 in 10.0 mi SW 9.2 mph - N/A   Unknown
11:55 AM 57.2 °F - 42.8 °F 59% 29.97 in 10.0 mi SW 9.2 mph - N/A   Clear
12:15 PM 59.0 °F - 42.8 °F 55% 29.97 in 10.0 mi West 8.1 mph - N/A   Clear
12:36 PM 60.8 °F - 42.8 °F 52% 29.97 in 10.0 mi West 5.8 mph - N/A   Unknown
12:55 PM 62.6 °F - 42.8 °F 48% 29.96 in 10.0 mi WSW 10.4 mph - N/A   Clear
1:14 PM 62.6 °F - 41.0 °F 45% 29.95 in 10.0 mi West 9.2 mph - N/A   Clear
1:35 PM 62.6 °F - 35.6 °F 37% 29.95 in 10.0 mi WNW 11.5 mph 16.1 mph N/A   Clear
1:54 PM 64.4 °F - 35.6 °F 34% 29.94 in 10.0 mi West 5.8 mph - N/A   Clear
2:14 PM 64.4 °F - 33.8 °F 32% 29.93 in 10.0 mi WNW 11.5 mph 17.3 mph N/A   Clear
2:35 PM 66.2 °F - 30.2 °F 26% 29.92 in 10.0 mi West 11.5 mph - N/A   Clear
2:54 PM 66.2 °F - 30.2 °F 26% 29.92 in 10.0 mi WNW 12.7 mph - N/A   Clear
3:14 PM 66.2 °F - 30.2 °F 26% 29.92 in 10.0 mi WSW 6.9 mph 16.1 mph N/A   Clear
3:34 PM 64.4 °F - 30.2 °F 28% 29.91 in 10.0 mi WSW 3.5 mph - N/A   Clear
3:55 PM 66.2 °F - 30.2 °F 26% 29.91 in 10.0 mi West 5.8 mph - N/A   Clear
4:15 PM 66.2 °F - 32.0 °F 28% 29.90 in 10.0 mi WSW 6.9 mph - N/A   Clear
4:34 PM 66.2 °F - 30.2 °F 26% 29.89 in 10.0 mi West 5.8 mph 9.2 mph N/A   Clear
4:55 PM 64.4 °F - 30.2 °F 28% 29.89 in 10.0 mi SW 8.1 mph - N/A   Clear
5:15 PM 66.2 °F - 30.2 °F 26% 29.88 in 10.0 mi West 3.5 mph - N/A   Clear
5:35 PM 66.2 °F - 32.0 °F 28% 29.87 in 10.0 mi West 6.9 mph - N/A   Clear
5:55 PM 66.2 °F - 32.0 °F 28% 29.87 in 10.0 mi WNW 5.8 mph - N/A   Clear
6:14 PM 64.4 °F - 32.0 °F 30% 29.87 in 10.0 mi NNW 3.5 mph - N/A   Clear
6:34 PM 62.6 °F - 32.0 °F 32% 29.87 in 10.0 mi Calm Calm - N/A   Clear
6:54 PM 62.6 °F - 32.0 °F 32% 29.87 in 10.0 mi Calm Calm - N/A   Clear
7:14 PM 62.6 °F - 32.0 °F 32% 29.86 in 10.0 mi Calm Calm - N/A   Clear
7:35 PM 62.6 °F - 35.6 °F 37% 29.86 in 10.0 mi NE 3.5 mph - N/A   Clear
7:54 PM 60.8 °F - 33.8 °F 36% 29.87 in 10.0 mi NNE 3.5 mph - N/A   Clear
8:14 PM 60.8 °F - 35.6 °F 39% 29.87 in 10.0 mi NE 3.5 mph - N/A   Clear
8:35 PM 60.8 °F - 33.8 °F 36% 29.88 in 10.0 mi Calm Calm - N/A   Mostly Cloudy
8:55 PM 60.8 °F - 33.8 °F 36% 29.89 in 7.0 mi ENE 6.9 mph - N/A   Overcast
9:14 PM 57.2 °F - 33.8 °F 41% 29.89 in 7.0 mi Calm Calm - N/A   Overcast
9:34 PM 59.0 °F - 35.6 °F 42% 29.88 in 10.0 mi North 4.6 mph - N/A   Scattered Clouds
9:55 PM 59.0 °F - 33.8 °F 39% 29.88 in 10.0 mi NE 4.6 mph - N/A   Clear
10:14 PM 59.0 °F - 35.6 °F 42% 29.85 in 10.0 mi NE 6.9 mph - N/A   Scattered Clouds
10:35 PM 57.2 °F - 35.6 °F 44% 29.86 in 10.0 mi ENE 5.8 mph - N/A   Mostly Cloudy
10:54 PM 55.4 °F - 37.4 °F 51% 29.87 in 10.0 mi East 5.8 mph - N/A   Overcast
11:15 PM 55.4 °F - 37.4 °F 51% 29.87 in 10.0 mi ENE 6.9 mph - N/A   Overcast
11:34 PM 53.6 °F - 39.2 °F 58% 29.86 in 10.0 mi ENE 11.5 mph 15.0 mph N/A   Overcast
11:54 PM 55.4 °F - 37.4 °F 51% 29.86 in 10.0 mi NE 8.1 mph - N/A   Overcast